Estación de San Pedro
Ultimos registro cada 15 minutos 49
| N° | Estación | Fecha / Hora | Temperatura | Humedad | Lluvia | Velocidad | Dirección | Radiación | Presion |
| 49 | San Pedro | 07-05-2026 12:00 | 16,2 | 68,9 | 0 | 1 | 44 | 611,9 | 1009,6 |
| 48 | San Pedro | 07-05-2026 11:45 | 16 | 71 | 0 | 0,5 | 18 | 601,9 | 1009,5 |
| 47 | San Pedro | 07-05-2026 11:30 | 15,4 | 74,2 | 0 | 0,5 | 279 | 584,4 | 1009,5 |
| 46 | San Pedro | 07-05-2026 11:15 | 16,7 | 70,8 | 0 | 0 | 14 | 564,4 | 1009,4 |
| 45 | San Pedro | 07-05-2026 11:00 | 15,8 | 72,4 | 0 | 0 | 305 | 536,9 | 1009,6 |
| 44 | San Pedro | 07-05-2026 10:45 | 14,4 | 76,8 | 0 | 0,5 | 296 | 513,1 | 1009,6 |
| 43 | San Pedro | 07-05-2026 10:30 | 13,6 | 81 | 0 | 1 | 265 | 484,4 | 1009,5 |
| 42 | San Pedro | 07-05-2026 10:15 | 13,5 | 79,6 | 0 | 0,5 | 279 | 451,9 | 1009,7 |
| 41 | San Pedro | 07-05-2026 10:00 | 14,2 | 75,4 | 0 | 0 | 348 | 180,6 | 1009,9 |
| 40 | San Pedro | 07-05-2026 09:45 | 14,1 | 76,4 | 0 | 0 | 1 | 376,9 | 1009,8 |
| 39 | San Pedro | 07-05-2026 09:30 | 12,6 | 79,8 | 0 | 1 | 272 | 336,9 | 1009,6 |
| 38 | San Pedro | 07-05-2026 09:15 | 12,3 | 81,1 | 0 | 0 | 331 | 316,9 | 1009,8 |
| 37 | San Pedro | 07-05-2026 09:00 | 12,6 | 82,2 | 0 | 0,5 | 291 | 225,6 | 1009,7 |
| 36 | San Pedro | 07-05-2026 08:45 | 11 | 85,7 | 0 | 1 | 279 | 250,6 | 1009,4 |
| 35 | San Pedro | 07-05-2026 08:30 | 10,7 | 87 | 0 | 0,5 | 285 | 183,1 | 1009,4 |
| 34 | San Pedro | 07-05-2026 08:15 | 10,5 | 89,2 | 0 | 0 | 281 | 135,6 | 1009,2 |
| 33 | San Pedro | 07-05-2026 08:00 | 9,6 | 91,3 | 0 | 0 | 267 | 38,1 | 1009,1 |
| 32 | San Pedro | 07-05-2026 07:45 | 9,5 | 91,1 | 0 | 0,5 | 77 | 15,6 | 1009 |
| 31 | San Pedro | 07-05-2026 07:30 | 9,6 | 90,8 | 0 | 0,5 | 58 | 4,4 | 1009 |
| 30 | San Pedro | 07-05-2026 07:15 | 9,9 | 90,4 | 0 | 0 | 321 | 0,6 | 1008,8 |
| 29 | San Pedro | 07-05-2026 07:00 | 9,2 | 93,5 | 0 | 0 | 11 | 0,6 | 1008,9 |
| 28 | San Pedro | 07-05-2026 06:45 | 9,3 | 91,9 | 0 | 0 | 274 | 0,6 | 1008,8 |
| 27 | San Pedro | 07-05-2026 06:30 | 9,9 | 89,7 | 0 | 0 | 55 | 0,6 | 1008,5 |
| 26 | San Pedro | 07-05-2026 06:15 | 9,2 | 92,7 | 0 | 0 | 37 | 0,6 | 1008,2 |
| 25 | San Pedro | 07-05-2026 06:00 | 9,9 | 89,9 | 0 | 0,5 | 296 | 0,6 | 1008,1 |
| 24 | San Pedro | 07-05-2026 05:45 | 10,1 | 89,3 | 0 | 0 | 284 | 0,6 | 1008 |
| 23 | San Pedro | 07-05-2026 05:30 | 9,6 | 91,4 | 0 | 0 | 42 | 0,6 | 1007,9 |
| 22 | San Pedro | 07-05-2026 05:15 | 8,7 | 93,4 | 0 | 0 | 253 | 0,6 | 1007,8 |
| 21 | San Pedro | 07-05-2026 05:00 | 7,8 | 98,4 | 0 | 0 | 260 | 0,6 | 1007,6 |
| 20 | San Pedro | 07-05-2026 04:45 | 7,7 | 95,8 | 0 | 0 | 265 | 0,6 | 1007,4 |
| 19 | San Pedro | 07-05-2026 04:30 | 8,3 | 95,4 | 0 | 0 | 264 | 0,6 | 1007,1 |
| 18 | San Pedro | 07-05-2026 04:15 | 9,3 | 92 | 0 | 0 | 160 | 0,6 | 1007,1 |
| 17 | San Pedro | 07-05-2026 04:00 | 10,1 | 89 | 0 | 1 | 256 | 0,6 | 1007,1 |
| 16 | San Pedro | 07-05-2026 03:45 | 10,3 | 88,6 | 0 | 0 | 307 | 0,6 | 1007,2 |
| 15 | San Pedro | 07-05-2026 03:30 | 10,4 | 89,2 | 0 | 0 | 336 | 0,6 | 1007,4 |
| 14 | San Pedro | 07-05-2026 03:15 | 10,7 | 86,1 | 0 | 1,5 | 77 | 0,6 | 1007,5 |
| 13 | San Pedro | 07-05-2026 03:00 | 9 | 93,9 | 0 | 0 | 55 | 0,6 | 1007,7 |
| 12 | San Pedro | 07-05-2026 02:45 | 8,4 | 95,2 | 0 | 0 | 0 | 0,6 | 1007,6 |
| 11 | San Pedro | 07-05-2026 02:30 | 9 | 95,4 | 0 | 0 | 55 | 0,6 | 1007,4 |
| 10 | San Pedro | 07-05-2026 02:15 | 9,7 | 93,5 | 0 | 0 | 53 | 0,6 | 1007,3 |
| 9 | San Pedro | 07-05-2026 02:00 | 10,9 | 87,4 | 0 | 0 | 14 | 0,6 | 1007,3 |
| 8 | San Pedro | 07-05-2026 01:45 | 11,3 | 84,7 | 0 | 0 | 74 | 0,6 | 1007,4 |
| 7 | San Pedro | 07-05-2026 01:30 | 11,3 | 85,5 | 0 | 0 | 295 | 0,6 | 1007,3 |
| 6 | San Pedro | 07-05-2026 01:15 | 11 | 92,4 | 0 | 0 | 250 | 0,6 | 1007 |
| 5 | San Pedro | 07-05-2026 01:00 | 11,3 | 88,9 | 0 | 0 | 258 | 0,6 | 1007,2 |
| 4 | San Pedro | 07-05-2026 00:45 | 11,3 | 89,3 | 0 | 0 | 251 | 0,6 | 1007,1 |
| 3 | San Pedro | 07-05-2026 00:30 | 11,3 | 88,6 | 0 | 0 | 237 | 0,6 | 1007,2 |
| 2 | San Pedro | 07-05-2026 00:15 | 11,3 | 89,7 | 0 | 0 | 244 | 0,6 | 1007,3 |
| 1 | San Pedro | 07-05-2026 00:00 | 11,5 | 87,2 | 0 | 0 | 240 | 0,6 | 1006,9 |